Regional Weather Roundup
Issued by NWS

Home | Current Version | Previous Version | Graphics & Text | Print | Product List | Glossary On
Versions: 1 2 3 4 5 6 7 8 9 10 11 12 13 14 15 16 17 18 19 20 21 22 23 24 25 26 27 28 29 30 31 32 33 34 35 36 37 38 39 40 41 42 43 44 45 46 47 48 49 50
000
ASUS43 KMKX 221600
RWRWI

WISCONSIN REGIONAL WEATHER ROUNDUP
NATIONAL WEATHER SERVICE MILWAUKEE/SULLIVAN WI
1100 AM CDT SAT JUL 22 2017

NOTE: "FAIR" INDICATES FEW OR NO CLOUDS BELOW 12,000 FEET WITH NO
SIGNIFICANT WEATHER AND/OR OBSTRUCTIONS TO VISIBILITY.

WIZ001-002-006>008-014>016-023>028-221700-
NORTHWEST WISCONSIN

CITY           SKY/WX    TMP DP  RH WIND       PRES   REMARKS
SUPERIOR ARPT  NOT AVBL
ASHLAND        CLOUDY    72  65  78 NW6       29.82S
HAYWARD        CLOUDY    72  65  78 SW3       29.83S
SIREN          SUNNY     73  66  78 CALM      29.83R
CUMBERLAND     MOSUNNY   73  64  73 CALM      29.83R
RICE LAKE      MOSUNNY   75  67  76 SE3       29.85R
CHETEK         MOSUNNY   75  67  77 CALM      29.83F
LADYSMITH      CLOUDY    76  65  69 CALM      29.85F
EAU CLAIRE     NOT AVBL
MENOMONIE      SUNNY     79  67  68 CALM      29.83F HX  81
NEW RICHMOND   SUNNY     79  67  64 S7        29.82F HX  81
OSCEOLA        CLOUDY    78  68  69 S6        29.84F HX  80
$$

WIZ003>005-009-010-017-018-221700-
NORTH CENTRAL WISCONSIN

CITY           SKY/WX    TMP DP  RH WIND       PRES   REMARKS
MANITOWISH WTR CLOUDY    75  66  74 W10       29.84S
ARBOR VITAE    MOSUNNY   75  66  72 W6        29.83F
WOODRUFF       MOSUNNY   75  66  72 W6        29.83F
RHINELANDER    MOSUNNY   76  65  68 VRB3      29.85F
EAGLE RIVER    PTSUNNY   74  62  66 CALM      29.84F
LAND O LAKES   PTSUNNY   76  63  64 W5        29.86F
PHILLIPS       MOSUNNY   76  67  74 NW5       29.84R
TOMAHAWK         N/A     74  64  69 SW3       29.85F
MEDFORD        SUNNY     74  65  74 E3        29.85F
MERRILL        MOSUNNY   75  68  78 NW3       29.84F
$$

WIZ029-030-035-036-043>047-221700-
CENTRAL WISCONSIN

CITY           SKY/WX    TMP DP  RH WIND       PRES   REMARKS
WAUSAU         PTSUNNY   75  66  73 NW7       29.83F
MOSINEE        PTSUNNY   73  70  88 NW7       29.86F
MARSHFIELD     PTSUNNY   76  67  73 CALM      29.85F
STEVENS POINT  CLOUDY    69  67  94 CALM      29.86S
WAUPACA        CLOUDY    74  67  76 CALM      29.84F
WAUTOMA        CLOUDY    71  67  87 VRB5      29.86R
WISC RAPIDS    CLOUDY    72  68  87 NE6       29.87R
CAMP DOUGLAS   CLOUDY    70  70 100 CALM      29.86R
$$

WIZ011>013-019>022-031-037>040-048>050-221700-
NORTHEAST WISCONSIN

CITY           SKY/WX    TMP DP  RH WIND       PRES   REMARKS
ANTIGO         CLOUDY    73  66  77 NW8       29.86F
SHAWANO        CLOUDY    76  64  67 E3        29.83F
OCONTO         CLOUDY    73  64  71 CALM      29.83F
STURGEON BAY     N/A     73  65  75 VRB3      29.84F
GREEN BAY      CLOUDY    77  66  68 CALM      29.84R
MANITOWOC      NOT AVBL
APPLETON       PTSUNNY   72  63  73 CALM      29.84R
CLINTONVILLE   CLOUDY    73  63  68 CALM      29.84S
OSHKOSH        CLOUDY    72  66  81 N5        29.85R
$$

WIZ032>034-041-042-053>061-221700-
SOUTHWEST WISCONSIN

CITY           SKY/WX    TMP DP  RH WIND       PRES   REMARKS
LA CROSSE      CLOUDY    75  71  87 NW5       29.86R
SPARTA         CLOUDY    69  67  93 N5        29.87R
VIROQUA        CLOUDY    72  71  98 CALM      29.88S
BOSCOBEL       CLOUDY    75  71  87 VRB5      29.85S
PRAIRIE DU CHI MOSUNNY   76  69  78 W5        29.84S
PLATTEVILLE    SUNNY     77  74  90 W7        29.85S
$$

WIZ056-057-062-063-064-067-068-221700-
SOUTH CENTRAL WISCONSIN

CITY           SKY/WX    TMP DP  RH WIND       PRES   REMARKS
REEDSBURG      CLOUDY    71  71 100 N7        29.86R
BARABOO/DELLS  CLOUDY    69  68  95 N3        29.86R FOG
LONE ROCK      NOT AVBL
MINERAL POINT  CLOUDY    77  72  83 W8        29.86S
MADISON        CLOUDY    73  70  90 VRB5      29.84S
MIDDLETON      CLOUDY    74  74  98 NW5       29.85S
WATERTOWN      CLOUDY    72  72 100 NW6       29.84R
MONROE         PTSUNNY   77  68  73 NW9       29.85S
JANESVILLE     PTSUNNY   81  70  69 NW13      29.84S HX  84
$$

WIZ051-052-058>065-066-070>072-221700-
SOUTHEAST WISCONSIN

CITY           SKY/WX    TMP DP  RH WIND       PRES   REMARKS
MILWAUKEE      PTSUNNY   77  69  76 NW10      29.82S
WAUKESHA       CLOUDY    73  68  83 NW6       29.85R
MILWAUKEE/TIMM CLOUDY    73  66  78 W6        29.83S
RACINE         CLOUDY    77  70  79 W8        29.84S
KENOSHA        CLOUDY    78  69  73 W10       29.83F HX  80
FOND DU LAC    CLOUDY    71  65  81 N5        29.86R
SHEBOYGAN      CLOUDY    71  70  96 NE6       29.84R
WEST BEND      CLOUDY    70  68  94 NW7       29.84R
JUNEAU         CLOUDY    70  68  93 N7        29.85R
$$

LSZ147-162-221700-
LAKE SUPERIOR

STATION/POSITION TIME  TEMP    WIND        PRES    WAVE
                       AIR SEA DIR/SP/G            HT/PER
                 (UTC) (F)     (DEG/KT/KT) (MB)    (FT/S)
W MID LAKE BUOY  1450   49 47   30/  8/ 10 1010.2F   2/ 4
DEVILS ISLAND    1500   57      40/  6/  7 1010.4S
SAXON HARBOR     1540   64      50/ 11/ 13 1009.5S
$$

LMZ867-665-643>646-221700-
LAKE MICHIGAN

STATION/POSITION TIME  TEMP    WIND        PRES    WAVE
                       AIR SEA DIR/SP/G            HT/PER
                 (UTC) (F)     (DEG/KT/KT) (MB)    (FT/S)
CHAMBERS ISLAND  1540   73      CALM  /  3 1009.8F
S GREEN BAY BUOY 1530   71 73   20/  4/  4 1010.4S
N MID LAKE BUOY  1450   68 67  350/  2/  2 1010.8F   1/ 4
NORTHPORT PIER   1540   73      CALM  /  1 1010.5S
KEWAUNEE LAKESHO 1530   72      30/  3/  7 1009.6S
SHEBOYGAN LAKESH 1500   66      20/  9/ 10 1009.3R
PORT WASHINGTON  1540   76     300/  6/ 11 1010.5S
ATWATER BUOY     1409   69 68  350/  6/  8 1009.7R
MILWAUKEE LAKESH 1550   71      50/  4/  5   N/A
S MID LAKE BUOY  1450   70 70  330/  6/  8 1009.1R   2/ 5
KENOSHA   LAKESH 1500   74     280/  9/ 13 1010.2
$$

TC  - TEMPERATURE IN CELSIUS
VSB - VISIBILITY IN STATUTE MILES
WCI - WIND CHILL INDEX
HX  - HEAT INDEX





USA.gov is the U.S. government's official web portal to all federal, state and local government web resources and services.